Location: Queenstown
(45.0312°S, 168.6626°E)
Time: 01:02:58
(UTC+13:00)

ISS - Visible Passes

Search period start: 03 December 2021 00:00
Search period end: 13 December 2021 00:00
Orbit: 417 x 423 km, 51.6° (Epoch: 02 December)

Date Brightness Start Highest point End Pass type
(mag) Time Alt. Az. Time Alt. Az. Time Alt. Az.
03 Dec -3.8 03:30:51 58° NNW 03:31:20 70° NNE 03:34:45 10° ESE visible
03 Dec -2.2 05:05:14 10° W 05:08:23 33° SSW 05:11:32 10° SE visible
04 Dec -2.5 02:45:08 34° E 02:45:08 34° E 02:47:29 10° ESE visible
04 Dec -2.5 04:18:05 12° W 04:21:05 40° SSW 04:24:21 10° SE visible
05 Dec -1.2 01:59:22 14° E 01:59:22 14° E 02:00:04 10° ESE visible
05 Dec -3.1 03:32:19 29° W 03:33:47 53° SSW 03:37:10 10° SE visible
05 Dec -1.6 05:08:09 10° WSW 05:11:07 26° S 05:14:05 10° SE visible
06 Dec -3.7 02:46:29 76° SW 02:46:32 77° SSW 02:49:58 10° ESE visible
06 Dec -1.8 04:20:42 10° WSW 04:23:44 28° S 04:26:47 10° SE visible
07 Dec -2.5 02:00:35 35° ESE 02:00:35 35° ESE 02:02:45 10° ESE visible
07 Dec -2.0 03:33:31 12° WSW 03:36:22 32° SSW 03:39:32 10° SE visible
07 Dec -1.5 05:10:51 10° SW 05:13:51 27° S 05:16:51 10° ESE visible
08 Dec -1.4 01:14:35 16° ESE 01:14:35 16° ESE 01:15:26 10° ESE visible
08 Dec -2.4 02:47:31 25° WSW 02:49:01 40° SSW 02:52:18 10° SE visible
08 Dec -1.5 04:23:29 10° WSW 04:26:27 26° S 04:29:25 10° ESE visible
09 Dec -3.0 02:01:23 50° SW 02:01:42 52° SSW 02:05:05 10° SE visible
09 Dec -1.5 03:36:04 10° WSW 03:39:02 26° S 03:42:00 10° SE visible
09 Dec -2.0 05:13:15 10° SW 05:16:29 36° SSE 05:19:41 10° E visible
10 Dec -3.2 01:15:01 56° SE 01:15:01 56° SE 01:17:51 10° ESE visible
10 Dec -1.6 02:48:35 10° WSW 02:51:38 28° S 02:54:40 10° SE visible
10 Dec -1.7 04:26:00 10° SW 04:29:06 30° SSE 04:32:12 10° ESE visible
11 Dec -2.9 00:28:14 40° ESE 00:28:14 40° ESE 00:30:36 10° ESE visible
11 Dec -1.9 02:01:05 10° W 02:04:13 32° SSW 02:07:22 10° SE visible
11 Dec -1.5 03:38:41 10° SW 03:41:42 27° S 03:44:42 10° ESE visible
11 Dec -3.2 05:15:31 10° WSW 05:18:57 66° SSE 05:22:21 10° ENE visible
11 Dec -3.5 23:39:58 46° NE 23:39:58 46° NE 23:43:15 10° ESE visible
12 Dec -2.3 01:13:35 10° W 01:16:50 39° SSW 01:20:06 10° SE visible
12 Dec -1.4 02:51:18 10° WSW 02:54:16 26° S 02:57:13 10° ESE visible
12 Dec -2.6 04:28:17 10° SW 04:31:38 47° SSE 04:34:57 10° E visible
12 Dec -2.9 22:49:46 10° NNW 22:52:46 29° NE 22:55:48 10° ESE visible
